Weather History for Wooster, OH

Change the Weather History Date:

Tuesday, January 22, 2013

  Actual Average Record
Temperature  
Mean Temperature 6 °F -  
Max Temperature 10 °F 29 °F 60 °F (1999)
Min Temperature 0 °F 14 °F -9 °F (2000)
Degree Days  
Heating Degree Days 60    
Moisture  
Dew Point 0 °F    
Average Humidity 72    
Maximum Humidity 83    
Minimum Humidity 61    
Precipitation  
Precipitation 0.00 in - - ()
Sea Level Pressure  
Sea Level Pressure 30.23 in    
Wind  
Wind Speed 12 mph (West)    
Max Wind Speed 20 mph    
Max Gust Speed 25 mph    
Visibility 6 miles    
Events Snow    
Averages and records for this station are not official NWS values.
T = Trace of Precipitation, MM = Missing Value Source: NWS Daily Summary

Daily Weather History Graph

Daily Weather History Graph

Search for Another Location

Airport:

Trip Planner

Search our weather history database for the weather conditions in past years. The results will help you decide how hot, cold, wet, or windy it might be!

Date:

Astronomy

Jan. 22, 2013 Rise Set
Actual Time 7:45 AM EST 5:32 PM EST
Civil Twilight 7:16 AM EST 6:02 PM EST
Nautical Twilight 6:42 AM EST 6:36 PM EST
Astronomical Twilight 6:10 AM EST 7:08 PM EST
Moon 1:54 PM EST (1/22) 4:06 AM EST (1/22)
Length of Visible Light 10h 46m
Length of Day
9h 47m
Waxing Gibbous, 82% of the Moon is Illuminated
Jan 22
Waxing Gibbous
Jan 26
Full
Feb 3
Last Quarter
Feb 10
New
Feb 17
First Quarter

Hourly Weather History & Observations

Time (EST) Temp. Windchill Dew Point Humidity Pressure Visibility Wind Dir Wind Speed Gust Speed Precip Events Conditions
12:09 AM 6.8 °F -7.8 °F -0.4 °F 72% 30.08 in 9.0 mi West 10.4 mph 20.7 mph N/A   Mostly Cloudy
12:22 AM 6.8 °F -10.7 °F -2.2 °F 67% 30.08 in 10.0 mi West 15.0 mph - N/A   Scattered Clouds
12:56 AM 6.1 °F -8.7 °F -2.0 °F 69% 30.15 in 10.0 mi West 10.4 mph - N/A   Clear
1:38 AM 6.8 °F -10.0 °F -2.2 °F 67% 30.09 in 10.0 mi West 13.8 mph - N/A   Mostly Cloudy
1:46 AM 6.8 °F -8.6 °F -2.2 °F 67% 30.09 in 10.0 mi West 11.5 mph - N/A   Scattered Clouds
1:56 AM 6.1 °F -9.5 °F -2.0 °F 69% 30.16 in 10.0 mi West 11.5 mph - N/A   Mostly Cloudy
2:07 AM 6.8 °F -9.3 °F -0.4 °F 72% 30.10 in 6.0 mi West 12.7 mph 19.6 mph N/A   Haze
2:25 AM 6.8 °F -8.6 °F -2.2 °F 67% 30.10 in 10.0 mi West 11.5 mph - N/A   Scattered Clouds
2:56 AM 6.1 °F -10.9 °F -2.0 °F 69% 30.18 in 10.0 mi West 13.8 mph 20.7 mph N/A   Partly Cloudy
3:56 AM 5.0 °F -10.8 °F -4.0 °F 66% 30.18 in 10.0 mi West 11.5 mph - N/A   Clear
4:56 AM 3.9 °F -10.4 °F -4.0 °F 70% 30.19 in 10.0 mi West 9.2 mph - N/A   Clear
5:56 AM 5.0 °F -10.0 °F -2.9 °F 70% 30.22 in 10.0 mi West 10.4 mph - N/A   Overcast
6:56 AM 3.9 °F -13.0 °F -4.0 °F 70% 30.24 in 10.0 mi West 12.7 mph - N/A   Partly Cloudy
7:56 AM 3.9 °F -11.3 °F -2.9 °F 73% 30.26 in 6.0 mi West 10.4 mph - N/A   Haze
8:04 AM 3.2 °F -12.2 °F -2.2 °F 78% 30.19 in 7.0 mi West 10.4 mph - N/A   Mostly Cloudy
8:19 AM 3.2 °F -13.9 °F -2.2 °F 78% 30.19 in 10.0 mi WNW 12.7 mph - N/A   Mostly Cloudy
8:48 AM 5.0 °F -11.6 °F -2.2 °F 72% 30.20 in 8.0 mi West 12.7 mph 20.7 mph N/A   Mostly Cloudy
8:56 AM 5.0 °F -13.0 °F -2.9 °F 70% 30.28 in 8.0 mi WNW 15.0 mph - N/A   Mostly Cloudy
9:11 AM 5.0 °F -13.0 °F -2.2 °F 72% 30.21 in 10.0 mi West 15.0 mph - N/A   Partly Cloudy
9:56 AM 7.0 °F -8.3 °F -2.0 °F 67% 30.30 in 10.0 mi West 11.5 mph 19.6 mph N/A   Partly Cloudy
10:56 AM 8.1 °F -9.0 °F -2.0 °F 64% 30.32 in 10.0 mi West 15.0 mph - N/A   Mostly Cloudy
11:04 AM 8.6 °F -8.9 °F -0.4 °F 67% 30.25 in 10.0 mi WNW 16.1 mph - N/A   Overcast
11:18 AM 8.6 °F -8.3 °F -0.4 °F 67% 30.25 in 7.0 mi West 15.0 mph 21.9 mph N/A   Overcast
11:35 AM 8.6 °F -4.7 °F 1.4 °F 73% 30.24 in 2.5 mi WNW 9.2 mph - 0.00 in Snow Light Snow
11:39 AM 8.6 °F -4.7 °F 1.4 °F 73% 30.24 in 4.0 mi NW 9.2 mph - 0.00 in Snow Light Snow
11:46 AM 8.6 °F -8.9 °F 1.4 °F 73% 30.24 in 2.5 mi West 16.1 mph 20.7 mph 0.00 in Snow Light Snow
11:56 AM 9.0 °F -5.9 °F 1.9 °F 73% 30.31 in 1.8 mi NW 11.5 mph 18.4 mph 0.00 in Snow Light Snow
12:11 PM 8.6 °F -6.3 °F 3.2 °F 79% 30.23 in 2.5 mi WNW 11.5 mph - 0.00 in Snow Light Snow
12:21 PM 8.6 °F -7.7 °F 1.4 °F 73% 30.23 in 3.0 mi West 13.8 mph 19.6 mph 0.00 in Snow Light Snow
12:25 PM 8.6 °F -7.7 °F 1.4 °F 73% 30.23 in 1.8 mi NW 13.8 mph 19.6 mph 0.00 in Snow Light Snow
12:34 PM 6.8 °F -9.3 °F 1.4 °F 79% 30.22 in 0.8 mi NW 12.7 mph - 0.00 in Snow Light Snow
12:43 PM 8.6 °F -7.0 °F 1.4 °F 73% 30.22 in 1.2 mi WNW 12.7 mph - 0.00 in Snow Light Snow
12:51 PM 8.6 °F -8.3 °F 1.4 °F 73% 30.22 in 3.0 mi WNW 15.0 mph - 0.00 in Snow Light Snow
12:56 PM 9.0 °F -7.9 °F 1.0 °F 70% 30.30 in 2.5 mi WNW 15.0 mph - 0.00 in Snow Light Snow
1:14 PM 8.6 °F -8.3 °F 1.4 °F 73% 30.21 in 5.0 mi WNW 15.0 mph - 0.00 in Snow Light Snow
1:37 PM 10.4 °F -8.2 °F 1.4 °F 67% 30.20 in 9.0 mi West 19.6 mph 25.3 mph 0.00 in   Overcast
1:56 PM 10.0 °F -7.1 °F -0.9 °F 61% 30.27 in 10.0 mi West 16.1 mph 24.2 mph 0.00 in   Mostly Cloudy
2:15 PM 8.6 °F -7.7 °F 1.4 °F 73% 30.20 in 2.5 mi West 13.8 mph - 0.00 in Snow Light Snow
2:30 PM 8.6 °F -7.0 °F 1.4 °F 73% 30.20 in 1.5 mi West 12.7 mph - 0.00 in Snow Light Snow
2:56 PM 9.0 °F -6.6 °F 1.9 °F 73% 30.29 in 1.0 mi WNW 12.7 mph - 0.00 in Snow Light Snow
3:02 PM 10.4 °F -4.1 °F 3.2 °F 73% 30.21 in 2.0 mi West 11.5 mph - 0.00 in Snow Light Snow
3:09 PM 8.6 °F -9.5 °F 1.4 °F 73% 30.21 in 7.0 mi West 17.3 mph 21.9 mph 0.00 in   Overcast
3:41 PM 8.6 °F -7.0 °F 1.4 °F 73% 30.22 in 1.8 mi West 12.7 mph - 0.00 in Snow Light Snow
3:51 PM 8.6 °F -4.7 °F 1.4 °F 73% 30.22 in 3.0 mi West 9.2 mph - 0.00 in Snow Light Snow
3:56 PM 9.0 °F -7.3 °F 1.0 °F 70% 30.30 in 6.0 mi West 13.8 mph 20.7 mph 0.00 in   Haze
4:22 PM 8.6 °F -5.5 °F 1.4 °F 73% 30.22 in 2.0 mi West 10.4 mph - 0.00 in Snow Light Snow
4:31 PM 8.6 °F -6.3 °F 1.4 °F 73% 30.22 in 8.0 mi West 11.5 mph - 0.00 in   Mostly Cloudy
4:49 PM 8.6 °F -6.3 °F 1.4 °F 73% 30.22 in 1.8 mi WNW 11.5 mph - 0.00 in Snow Light Snow
4:56 PM 9.0 °F -5.9 °F 3.0 °F 77% 30.30 in 1.5 mi West 11.5 mph - 0.00 in Snow Light Snow
5:05 PM 8.6 °F -4.7 °F 3.2 °F 79% 30.22 in 2.5 mi WNW 9.2 mph - 0.00 in Snow Light Snow
5:12 PM 8.6 °F -3.7 °F 3.2 °F 79% 30.22 in 5.0 mi West 8.1 mph - 0.00 in Snow Light Snow
5:22 PM 8.6 °F -6.3 °F 1.4 °F 73% 30.22 in 4.0 mi West 11.5 mph 24.2 mph 0.00 in Snow Light Snow
5:56 PM 8.1 °F -5.3 °F -0.0 °F 70% 30.31 in 10.0 mi West 9.2 mph - 0.00 in   Mostly Cloudy
6:56 PM 6.1 °F -4.3 °F -0.0 °F 76% 30.33 in 10.0 mi West 5.8 mph - N/A   Clear
7:56 PM 6.1 °F -6.8 °F -0.9 °F 73% 30.33 in 10.0 mi West 8.1 mph - N/A   Clear
8:56 PM 1.9 °F -7.6 °F -2.0 °F 83% 30.32 in 10.0 mi West 4.6 mph - N/A   Clear
9:56 PM 1.9 °F -7.6 °F -2.9 °F 80% 30.32 in 10.0 mi West 4.6 mph - N/A   Clear
10:56 PM 1.0 °F -8.7 °F -2.9 °F 83% 30.33 in 10.0 mi West 4.6 mph - N/A   Clear
11:56 PM -0.0 °F -9.9 °F -5.1 °F 79% 30.33 in 10.0 mi West 4.6 mph - N/A   Clear